Home   Weather   Sheffield   Past weeks

Flag for United Kingdom Past Weather in Sheffield, England, United Kingdom — Yesterday and Last 2 Weeks

Now
41 °F

Mostly cloudy.


Feels Like: 41 °F
Forecast: N/A
Wind: 2 mph from North

Location: Manchester Airport

Current Time: Jan 23, 2017 at 3:17:11 pm

Latest Report: Jan 23, 2017 at 2:20 pm


Visibility: 4 mi

Pressure: 30.30 "Hg

Humidity: 93%

Dew Point: 39 °F

Location of SheffieldLocation

Past Weather in Sheffield — Graph

°F

Sheffield Temperature Yesterday

Maximum temperature yesterday: 37 °F (at 12:20 am)
Minimum temperature yesterday: 32 °F (at 2:20 am)
Average temperature yesterday: 35 °F

High & Low Weather Summary for the Past Weeks

 TemperatureHumidityPressure
High52 °F (Jan 11, 3:20 am)100% (Jan 8, 3:50 pm)30.66 "Hg (Jan 8, 3:50 pm)
Low30 °F (Jan 13, 3:50 am)53% (Jan 11, 2:20 pm)29.45 "Hg (Jan 12, 4:20 pm)
Average42 °F88%30.19 "Hg
* Reported Jan 8 1:20 pm — Jan 23 1:50 pm, Sheffield, Weather by CustomWeather, © 2017

Note: Actual official high and low records may vary slightly from our data, if they occured in-between our weather recording intervals... More about our weather records

Advertising

Sheffield Weather History for the Previous 24 Hours

Scroll right to see more
 ConditionsComfort  
Time TempWeatherWind HumidityBarometerVisibility
1:50 pm
Mon, Jan 23
41 °FCloudy.1 mph93%30.30 "Hg4 mi
1:20 pm41 °FLight rain. More clouds than sun.1 mph93%30.30 "Hg3 mi
12:50 pm41 °FMostly cloudy.3 mph87%30.33 "Hg5 mi
12:20 pm39 °FFog.3 mph100%30.33 "Hg4 mi
11:50 am37 °FFog.2 mph100%30.33 "Hg2 mi
11:20 am37 °FFog.1 mph100%30.33 "Hg1 mi
10:50 am36 °FFog.2 mph100%30.33 "Hg1 mi
10:20 am36 °FFog.2 mph100%30.33 "Hg0 mi
9:50 am36 °FFog.2 mph100%30.36 "Hg0 mi
9:20 am36 °FFog.2 mph100%30.36 "Hg0 mi
8:50 am36 °FFog.2 mph100%30.33 "Hg0 mi
8:20 am36 °FFog.2 mph93%30.33 "Hg0 mi
7:50 am36 °FFog.3 mph100%30.33 "Hg0 mi
6:50 am36 °FFog.2 mph100%30.33 "Hg1 mi
6:20 am36 °FFog.5 mph100%30.33 "Hg1 mi
5:50 am36 °FFog.3 mph100%30.33 "Hg2 mi
5:20 am36 °FFog.2 mph100%30.33 "Hg2 mi
4:50 am36 °FFog.1 mph100%30.33 "Hg2 mi
4:20 am36 °FFog.3 mph93%30.30 "Hg1 mi
3:50 am34 °FFog.3 mph93%30.33 "Hg1 mi
3:20 am34 °FFog.2 mph100%30.33 "Hg1 mi
2:50 am34 °FFog.1 mph100%30.33 "Hg1 mi
1:50 am32 °FIce fog.3 mph100%30.30 "Hg2 mi
1:20 am34 °FFog.1 mph100%30.30 "Hg1 mi
12:50 am32 °FIce fog.2 mph100%30.30 "Hg3 mi
12:20 am32 °FIce fog.3 mph100%30.33 "Hg3 mi
11:50 pm
Sun, Jan 22
34 °FFog.2 mph93%30.33 "Hg3 mi
11:20 pm34 °FFog.2 mph100%30.33 "Hg2 mi
10:50 pm34 °FFog.2 mph100%30.33 "Hg2 mi
10:20 pm34 °FFog.2 mph100%30.33 "Hg1 mi
9:50 pm34 °FHaze.1 mph93%30.30 "Hg1 mi
9:20 pm36 °FHaze.1 mph93%30.30 "Hg2 mi
8:50 pm36 °FHaze.1 mph93%30.30 "Hg2 mi
8:20 pm36 °FHaze.1 mph93%30.30 "Hg2 mi
7:50 pm37 °FHaze.2 mph87%30.30 "Hg2 mi
7:20 pm37 °FHaze.2 mph87%30.30 "Hg2 mi
6:50 pm37 °FHaze.2 mph87%30.30 "Hg3 mi
6:20 pm37 °FPassing clouds.1 mph87%30.30 "Hg3 mi
5:50 pm37 °FMostly cloudy.3 mph87%30.27 "Hg3 mi
5:20 pm37 °FMostly cloudy.2 mph87%30.27 "Hg3 mi
4:50 pm37 °FPassing clouds.3 mph87%30.27 "Hg2 mi
4:20 pm37 °FMostly cloudy.3 mph87%30.27 "Hg3 mi
3:50 pm37 °FDrizzle. Broken clouds.5 mph87%30.27 "Hg3 mi
3:20 pm37 °FPartly sunny.6 mph87%30.27 "Hg2 mi
Weather by CustomWeather, © 2017

See weather overviewHow to use our weather pages